When you browse on this site, cookies collect data to enhance your experience and personalize the content and advertising you see.
Visit our Privacy Policy to learn more. By continuing to use the site, you agree to this use of cookies and data.
  • In Österreich
  • Länderverzeichnis
  • Für 7 Tage
  • Wassertemperatur
  • Wetterkarte
  • News
  • Widgets
  • user-avatar
    Anmelden

    Stündliche Wetter Zatemne

    Heute, 23 Oktober, Mittwoch

    Zeit Temperatur Niederschläge Wind Luftdruck Luftfeuchtigkeit
    00:00 +14°C° 0 mm 1 m/S 738 mmHg 74%
    01:00 +14°C° 0 mm 1 m/S 738 mmHg 76%
    02:00 +12°C° 0 mm 0 m/S 738 mmHg 80%
    03:00 +13°C° 0 mm 1 m/S 738 mmHg 81%
    04:00 +13°C° 0 mm 1 m/S 738 mmHg 83%
    05:00 +12°C° 0 mm 1 m/S 738 mmHg 85%
    06:00 +12°C° 0 mm 0 m/S 738 mmHg 85%
    07:00 +12°C° 0 mm 0 m/S 738 mmHg 85%
    08:00 +12°C° 0 mm 0 m/S 738 mmHg 85%
    09:00 +14°C° 0 mm 0 m/S 738 mmHg 78%
    10:00 +18°C° 0 mm 1 m/S 738 mmHg 72%
    11:00 +20°C° 0 mm 1 m/S 738 mmHg 65%
    12:00 +20°C° 0 mm 1 m/S 738 mmHg 62%
    13:00 +21°C° 0 mm 1 m/S 738 mmHg 58%
    14:00 +22°C° 0 mm 1 m/S 738 mmHg 55%
    15:00 +21°C° 0 mm 1 m/S 737 mmHg 60%
    16:00 +20°C° 0 mm 1 m/S 737 mmHg 65%
    17:00 +18°C° 0 mm 1 m/S 737 mmHg 70%
    18:00 +18°C° 0 mm 1 m/S 737 mmHg 74%
    19:00 +16°C° 0 mm 1 m/S 737 mmHg 77%
    20:00 +15°C° 0 mm 1 m/S 736 mmHg 81%
    21:00 +15°C° 0 mm 1 m/S 736 mmHg 82%
    22:00 +14°C° 0 mm 2 m/S 736 mmHg 83%
    23:00 +14°C° 0 mm 2 m/S 736 mmHg 84%

    Morgen, 24 Oktober, Donnerstag

    Zeit Temperatur Niederschläge Wind Luftdruck Luftfeuchtigkeit
    00:00 +14°C° 0 mm 2 m/S 736 mmHg 84%
    01:00 +13°C° 0 mm 2 m/S 736 mmHg 85%
    02:00 +13°C° 0 mm 2 m/S 736 mmHg 85%
    03:00 +13°C° 0 mm 2 m/S 736 mmHg 85%
    04:00 +13°C° 0 mm 2 m/S 735 mmHg 85%
    05:00 +12°C° 0 mm 2 m/S 735 mmHg 84%
    06:00 +13°C° 0 mm 2 m/S 735 mmHg 83%
    07:00 +12°C° 0 mm 3 m/S 735 mmHg 82%
    08:00 +12°C° 0 mm 3 m/S 735 mmHg 80%
    09:00 +14°C° 0 mm 3 m/S 735 mmHg 73%
    10:00 +17°C° 0 mm 4 m/S 735 mmHg 65%
    11:00 +19°C° 0 mm 4 m/S 735 mmHg 57%
    12:00 +20°C° 0 mm 4 m/S 734 mmHg 54%
    13:00 +21°C° 0 mm 4 m/S 734 mmHg 52%
    14:00 +23°C° 0 mm 4 m/S 734 mmHg 49%
    15:00 +21°C° 0 mm 3 m/S 734 mmHg 54%
    16:00 +19°C° 0 mm 3 m/S 733 mmHg 59%
    17:00 +18°C° 0 mm 3 m/S 733 mmHg 65%
    18:00 +17°C° 0 mm 3 m/S 733 mmHg 66%
    19:00 +16°C° 0 mm 3 m/S 733 mmHg 68%
    20:00 +14°C° 0 mm 3 m/S 733 mmHg 70%
    21:00 +14°C° 0 mm 3 m/S 733 mmHg 71%
    22:00 +13°C° 0 mm 3 m/S 733 mmHg 72%
    23:00 +13°C° 0 mm 3 m/S 733 mmHg 72%

    übermorgen, 25 Oktober, Freitag

    Zeit Temperatur Niederschläge Wind Luftdruck Luftfeuchtigkeit
    00:00 +13°C° 0 mm 3 m/S 733 mmHg 73%
    01:00 +12°C° 0 mm 3 m/S 733 mmHg 74%
    02:00 +12°C° 0 mm 3 m/S 733 mmHg 75%
    03:00 +13°C° 0 mm 2 m/S 733 mmHg 75%
    04:00 +12°C° 0 mm 2 m/S 733 mmHg 76%
    05:00 +12°C° 0 mm 2 m/S 733 mmHg 76%
    06:00 +12°C° 0 mm 2 m/S 734 mmHg 74%
    07:00 +13°C° 0 mm 1 m/S 734 mmHg 71%
    08:00 +13°C° 0 mm 1 m/S 734 mmHg 69%
    09:00 +15°C° 0 mm 1 m/S 735 mmHg 61%
    10:00 +18°C° 0 mm 2 m/S 735 mmHg 52%
    11:00 +20°C° 0 mm 2 m/S 736 mmHg 44%
    12:00 +20°C° 0 mm 2 m/S 736 mmHg 44%
    13:00 +21°C° 0 mm 3 m/S 736 mmHg 44%
    14:00 +21°C° 0 mm 3 m/S 736 mmHg 44%
    15:00 +20°C° 0 mm 3 m/S 736 mmHg 52%
    16:00 +18°C° 0 mm 2 m/S 736 mmHg 59%
    17:00 +17°C° 0 mm 2 m/S 736 mmHg 66%
    18:00 +16°C° 0 mm 2 m/S 736 mmHg 70%
    19:00 +15°C° 0 mm 1 m/S 736 mmHg 75%
    20:00 +14°C° 0 mm 1 m/S 737 mmHg 80%
    21:00 +13°C° 0 mm 1 m/S 737 mmHg 82%
    22:00 +13°C° 0 mm 1 m/S 737 mmHg 85%
    23:00 +12°C° 0 mm 1 m/S 737 mmHg 88%

    26 Oktober, Samstag

    Zeit Temperatur Niederschläge Wind Luftdruck Luftfeuchtigkeit
    00:00 +12°C° 0 mm 1 m/S 737 mmHg 89%
    01:00 +11°C° 0 mm 0 m/S 737 mmHg 90%
    02:00 +10°C° 0 mm 0 m/S 737 mmHg 91%
    03:00 +10°C° 0 mm 0 m/S 737 mmHg 91%
    04:00 +10°C° 0 mm 0 m/S 737 mmHg 92%
    05:00 +10°C° 0 mm 0 m/S 737 mmHg 92%
    06:00 +11°C° 0 mm 1 m/S 737 mmHg 92%
    07:00 +11°C° 0 mm 1 m/S 737 mmHg 92%
    08:00 +11°C° 0 mm 1 m/S 737 mmHg 92%
    09:00 +13°C° 0 mm 2 m/S 737 mmHg 83%
    10:00 +14°C° 0 mm 3 m/S 737 mmHg 74%
    11:00 +17°C° 0 mm 3 m/S 737 mmHg 64%
    12:00 +19°C° 0 mm 3 m/S 736 mmHg 59%
    13:00 +20°C° 0 mm 3 m/S 736 mmHg 53%
    14:00 +21°C° 0 mm 3 m/S 736 mmHg 47%
    15:00 +20°C° 0 mm 3 m/S 735 mmHg 51%
    16:00 +18°C° 0 mm 2 m/S 735 mmHg 55%
    17:00 +17°C° 0 mm 2 m/S 735 mmHg 58%
    18:00 +16°C° 0 mm 2 m/S 735 mmHg 59%
    19:00 +15°C° 0 mm 2 m/S 735 mmHg 61%
    20:00 +14°C° 0 mm 2 m/S 735 mmHg 62%
    21:00 +14°C° 0 mm 2 m/S 735 mmHg 63%
    22:00 +13°C° 0 mm 2 m/S 735 mmHg 63%
    23:00 +13°C° 0 mm 2 m/S 735 mmHg 64%

    27 Oktober, Sonntag

    Zeit Temperatur Niederschläge Wind Luftdruck Luftfeuchtigkeit
    00:00 +13°C° 0 mm 2 m/S 734 mmHg 64%
    01:00 +12°C° 0 mm 2 m/S 734 mmHg 63%
    02:00 +12°C° 0 mm 2 m/S 734 mmHg 63%
    03:00 +12°C° 0 mm 2 m/S 734 mmHg 63%
    04:00 +12°C° 0 mm 2 m/S 734 mmHg 64%
    05:00 +12°C° 0 mm 2 m/S 734 mmHg 64%
    06:00 +12°C° 0 mm 2 m/S 734 mmHg 64%
    07:00 +12°C° 0 mm 2 m/S 733 mmHg 65%
    08:00 +11°C° 0 mm 3 m/S 733 mmHg 65%
    09:00 +13°C° 0 mm 3 m/S 733 mmHg 59%
    10:00 +17°C° 0 mm 3 m/S 734 mmHg 52%
    11:00 +19°C° 0 mm 4 m/S 734 mmHg 46%
    12:00 +20°C° 0 mm 4 m/S 733 mmHg 43%
    13:00 +21°C° 0 mm 4 m/S 733 mmHg 41%
    14:00 +21°C° 0 mm 5 m/S 733 mmHg 38%
    15:00 +20°C° 0 mm 4 m/S 733 mmHg 45%
    16:00 +18°C° 0 mm 3 m/S 732 mmHg 51%
    17:00 +16°C° 0 mm 3 m/S 732 mmHg 57%
    18:00 +15°C° 0 mm 2 m/S 732 mmHg 61%
    19:00 +14°C° 0 mm 2 m/S 732 mmHg 66%
    20:00 +13°C° 0 mm 2 m/S 733 mmHg 70%
    21:00 +13°C° 0 mm 2 m/S 733 mmHg 71%
    22:00 +13°C° 0 mm 2 m/S 733 mmHg 72%
    23:00 +13°C° 0 mm 2 m/S 734 mmHg 74%

    28 Oktober, Montag

    Zeit Temperatur Niederschläge Wind Luftdruck Luftfeuchtigkeit
    00:00 +11°C° 0 mm 3 m/S 734 mmHg 77%
    01:00 +10°C° 0 mm 3 m/S 734 mmHg 81%
    02:00 +9°C° 0 mm 3 m/S 734 mmHg 84%
    03:00 +9°C° 0 mm 3 m/S 734 mmHg 82%
    04:00 +8°C° 0 mm 2 m/S 733 mmHg 80%
    05:00 +8°C° 0 mm 2 m/S 733 mmHg 78%
    06:00 +8°C° 0.2 mm 2 m/S 733 mmHg 80%
    07:00 +7°C° 0.2 mm 2 m/S 733 mmHg 81%
    08:00 +7°C° 0.2 mm 2 m/S 733 mmHg 82%
    09:00 +7°C° 0.4 mm 2 m/S 733 mmHg 83%
    10:00 +7°C° 0.4 mm 2 m/S 733 mmHg 83%
    11:00 +8°C° 0.4 mm 1 m/S 733 mmHg 83%
    12:00 +7°C° 0.1 mm 2 m/S 733 mmHg 82%
    13:00 +7°C° 0.1 mm 2 m/S 733 mmHg 80%
    14:00 +8°C° 0.1 mm 2 m/S 733 mmHg 79%
    15:00 +8°C° 0 mm 2 m/S 733 mmHg 78%
    16:00 +7°C° 0 mm 2 m/S 732 mmHg 77%
    17:00 +7°C° 0 mm 2 m/S 732 mmHg 76%
    18:00 +7°C° 0 mm 2 m/S 732 mmHg 76%
    19:00 +7°C° 0 mm 3 m/S 733 mmHg 75%
    20:00 +5°C° 0 mm 3 m/S 733 mmHg 75%
    21:00 +5°C° 0 mm 3 m/S 733 mmHg 77%
    22:00 +4°C° 0 mm 3 m/S 733 mmHg 79%
    23:00 +3°C° 0 mm 3 m/S 733 mmHg 80%

    29 Oktober, Dienstag

    Zeit Temperatur Niederschläge Wind Luftdruck Luftfeuchtigkeit
    00:00 +3°C° 0 mm 3 m/S 733 mmHg 81%
    01:00 +3°C° 0 mm 3 m/S 733 mmHg 81%
    02:00 +2°C° 0 mm 3 m/S 733 mmHg 81%
    03:00 +3°C° 0 mm 3 m/S 733 mmHg 80%
    04:00 +3°C° 0 mm 3 m/S 733 mmHg 78%
    05:00 +3°C° 0 mm 3 m/S 733 mmHg 77%
    06:00 +2°C° 0 mm 3 m/S 733 mmHg 76%
    07:00 +2°C° 0 mm 3 m/S 733 mmHg 76%
    08:00 +2°C° 0 mm 3 m/S 733 mmHg 75%
    09:00 +3°C° 0 mm 4 m/S 733 mmHg 73%
    10:00 +3°C° 0 mm 5 m/S 734 mmHg 72%
    11:00 +4°C° 0 mm 6 m/S 734 mmHg 70%
    12:00 +4°C° 0 mm 6 m/S 734 mmHg 68%
    13:00 +4°C° 0 mm 6 m/S 734 mmHg 66%
    14:00 +4°C° 0 mm 6 m/S 734 mmHg 63%
    15:00 +3°C° 0 mm 6 m/S 735 mmHg 67%
    16:00 +2°C° 0 mm 6 m/S 735 mmHg 71%
    17:00 +1°C° 0 mm 6 m/S 735 mmHg 75%
    18:00 0°C° 0 mm 5 m/S 736 mmHg 74%
    19:00 -1°C° 0 mm 4 m/S 737 mmHg 74%
    20:00 0°C° 0 mm 3 m/S 738 mmHg 73%
    21:00 -1°C° 0 mm 3 m/S 738 mmHg 75%
    22:00 -1°C° 0 mm 3 m/S 739 mmHg 77%
    23:00 -2°C° 0 mm 3 m/S 740 mmHg 78%
    Mehr zeigen